Location: Pedimozza
(42.0500°N, 9.3500°E)
Time: 03:46:06
(UTC+00:00)

Cosmos 1782 Rocket - Pass Details

Date: 19 August 2019
Orbit: 607 x 632 km, 82.5° (Epoch: 13 October)

Event Time Altitude Azimuth Distance (km) Brightness Sun altitude
Exits shadow 20:55:09 49° 36° (NE) 810 4.1 -25.2°
Drops below altitude 10° 20:58:34 10° 14° (NNE) 2,006 6.6 -25.6°
Sets 21:00:48 0° 11° (NNE) 2,913 7.5 -25.9°
